Regional Weather Roundup
Issued by NWS

Home | Current Version | Previous Version | Graphics & Text | Print | Product List | Glossary On
Versions: 1 2 3 4 5 6 7 8 9 10 11 12 13 14 15 16 17 18 19 20 21 22 23 24 25 26 27 28 29 30 31 32 33 34 35 36 37 38 39 40 41 42 43 44 45 46 47 48 49 50
514
ASUS44 KJAN 221910
RWRMS

MISSISSIPPI HOURLY WEATHER ROUNDUP
NATIONAL WEATHER SERVICE JACKSON MS
200 PM CDT TUE JUL 22 2014

NOTE: "FAIR: INDICATES FEW OR NO CLOUDS BELOW 12,000 FEET WITH NO
SIGNIFICANT WEATHER AND/OR OBSTRUCTIONS TO VISIBILITY.

MSZ001>002-007>008-010>013-018>021-025>028-034>036-222000-
NORTHWEST MISSISSIPPI

CITY           SKY/WX    TMP DP  RH WIND       PRES   REMARKS
CLARKSDALE     FAIR      86  73  66 NW3       30.09S HX  93
CLEVELAND      FAIR      86  76  71 NW6       30.07S HX  95
GREENWOOD      MOSUNNY   90  70  51 CALM      30.05F HX  95
GREENVILLE     MOSUNNY   89  70  53 VRB5      30.06F HX  94
GRENADA        FAIR      90  72  55 SE6       30.07S HX  96
OLIVE BRANCH   MOSUNNY   88  70  55 CALM      30.09F HX  92
OXFORD         FAIR      86  70  58 NE3       30.10S HX  90
TUNICA         PTCLDY    86  72  62 NW8       30.09F HX  92
$$

MSZ003>006-009-014>017-022>024-029>033-037>039-222000-
NORTHEAST MISSISSIPPI

CITY           SKY/WX    TMP DP  RH WIND       PRES   REMARKS
BELMONT        FAIR      83  73  72 CALM      30.09S
COLUMBUS AFB   CLOUDY    83  73  72 NE2       30.08F
CORINTH        MOCLDY    86  72  62 E7        30.07F HX  92
GOLDN TRIANGLE MOSUNNY   82  72  69 CALM      30.08F
STARKVILLE     FAIR      81  72  74 CALM      30.07F
TUPELO         PTSUNNY   85  74  69 S8        30.07F HX  92
$$

MSZ040-058-222000-
CENTRAL MISSISSIPPI

CITY           SKY/WX    TMP DP  RH WIND       PRES   REMARKS
JACKSON INTL   CLOUDY    85  73  67 NE6       30.06S HX  91
JACKSON HAWKNS CLOUDY    85  70  60 E6        30.06F
MERIDIAN KEY   LGT RAIN  84  73  69 N9        30.04F HX  90
MERIDIAN NAS   CLOUDY    83  73  72 N7        30.06S
RAYMOND        FAIR      84  81  89 CALM      30.06S HX  98
VICKSBURG      SUNNY     89  72  56 N5        30.05F HX  96
$$

MSZ059>079-222000-
SOUTH MISSISSIPPI

CITY           SKY/WX    TMP DP  RH WIND       PRES   REMARKS
BROOKHAVEN     FAIR      86  72  62 NE5       30.07F HX  92
COLUMBIA       FAIR      84  75  74 N5        30.02F HX  92
HATTIESBURG    CLOUDY    84  73  69 N7        30.03S HX  90
MCCOMB         PTSUNNY   88  71  57 VRB7      30.04F HX  94
NATCHEZ        PTSUNNY   84  72  65 N8        30.06S
PINE BELT      PTSUNNY   75  72  88 NE5       30.06S THUNDER
$$

MSZ080>082-222000-
COASTAL MISSISSIPPI

CITY           SKY/WX    TMP DP  RH WIND       PRES   REMARKS
BAY ST LOUIS   MOSUNNY  N/A N/A N/A S7        30.00F
BILOXI         MOSUNNY   90  72  56 S14       30.01F HX  97
PASCAGOULA     CLOUDY    84  74  71 NE8       30.02S HX  91
GULFPORT       MOSUNNY   91  72  53 S8        30.00F HX  98
$$



USA.gov is the U.S. government's official web portal to all federal, state and local government web resources and services.